,,Stat5,,Stat1,,Stat2,,Stat3,,Stat4,,Wind1,,Wind1,
time,status,PA1M_AVG,status,PR1M_SUM,status,RH1M_AVG,status,SR1M_AVG,status,TA1M_AVG,status,W1dAve1m,status,W1sAve1m,
2001-08-21, 00:00:00,VALID,919.836,VALID,0,VALID,96.1422,VALID,-0.101885,VALID,20.1529,VALID,325,VALID,0.552426,
2001-08-21, 00:01:00,VALID,919.846,VALID,0,VALID,96.216,VALID,-0.0849042,VALID,20.1559,VALID,327,VALID,0.446832,
2001-08-21, 00:02:00,VALID,919.836,VALID,0,VALID,96.2261,VALID,-0.101885,VALID,20.1691,VALID,299,VALID,0.363281,
2001-08-21, 00:03:01,VALID,919.822,VALID,0,VALID,96.2897,VALID,-0.101885,VALID,20.1589,VALID,304,VALID,0.31989,
2001-08-21, 00:04:00,VALID,919.79,VALID,0,VALID,96.3355,VALID,-0.0849042,VALID,20.1626,VALID,309,VALID,0.332442,
2001-08-21, 00:05:00,VALID,919.757,VALID,0,VALID,96.3431,VALID,-0.0849042,VALID,20.1492,VALID,318,VALID,0.099301,
2001-08-21, 00:06:01,VALID,919.731,VALID,0,VALID,96.2388,VALID,-0.101885,VALID,20.1594,VALID,322,VALID,0.286801,
2001-08-21, 00:07:00,VALID,919.744,VALID,0,VALID,96.1905,VALID,-0.101885,VALID,20.1524,VALID,305,VALID,0.332237,
2001-08-21, 00:08:01,VALID,919.758,VALID,0,VALID,96.1231,VALID,-0.101885,VALID,20.1562,VALID,301,VALID,0.407652,
2001-08-21, 00:09:00,VALID,919.765,VALID,0,VALID,96.0799,VALID,-0.0849042,VALID,20.1495,VALID,329,VALID,0.433594,
2001-08-21, 00:10:01,VALID,919.763,VALID,0,VALID,95.9629,VALID,-0.0849042,VALID,20.1694,VALID,360,VALID,0.888421,
2001-08-21, 00:11:00,VALID,919.756,VALID,0,VALID,95.4174,VALID,-0.0849042,VALID,20.1723,VALID,10,VALID,1.14556,
2001-08-21, 00:12:00,VALID,919.731,VALID,0,VALID,95.0855,VALID,-0.101885,VALID,20.1847,VALID,15,VALID,0.907652,
2001-08-21, 00:13:00,VALID,919.72,VALID,0,VALID,94.896,VALID,-0.101885,VALID,20.1982,VALID,7,VALID,0.514391,
2001-08-21, 00:14:01,VALID,919.718,VALID,0,VALID,94.7206,VALID,-0.0849042,VALID,20.2176,VALID,270,VALID,0.648638,
2001-08-21, 00:15:00,VALID,919.741,VALID,0,VALID,95.102,VALID,-0.0849042,VALID,20.2367,VALID,235,VALID,0.824836,
2001-08-21, 00:16:01,VALID,919.749,VALID,0,VALID,95.5967,VALID,-0.101885,VALID,20.2399,VALID,239,VALID,0.666867,
2001-08-21, 00:17:00,VALID,919.752,VALID,0,VALID,95.715,VALID,-0.101885,VALID,20.2074,VALID,235,VALID,0.426398,
2001-08-21, 00:18:01,VALID,919.756,VALID,0,VALID,95.9845,VALID,-0.101885,VALID,20.2046,VALID,236,VALID,0.442308,
2001-08-21, 00:19:00,VALID,919.772,VALID,0,VALID,96.1854,VALID,-0.101885,VALID,20.1815,VALID,236,VALID,0.355674,
2001-08-21, 00:20:01,VALID,919.785,VALID,0,VALID,96.3151,VALID,-0.101885,VALID,20.1855,VALID,237,VALID,0.289864,
2001-08-21, 00:21:00,VALID,919.794,VALID,0,VALID,96.3635,VALID,-0.0509425,VALID,20.1592,VALID,232,VALID,0.379317,
2001-08-21, 00:22:01,VALID,919.792,VALID,0,VALID,96.319,VALID,-0.101885,VALID,20.1368,VALID,209,VALID,0.267228,
2001-08-21, 00:23:00,VALID,919.773,VALID,0,VALID,96.2567,VALID,-0.101885,VALID,20.1246,VALID,181,VALID,0.433594,
2001-08-21, 00:24:00,VALID,919.742,VALID,0,VALID,96.1448,VALID,-0.101885,VALID,20.0988,VALID,165,VALID,0.369391,
2001-08-21, 00:25:00,VALID,919.693,VALID,0,VALID,96.132,VALID,-0.0849042,VALID,20.0856,VALID,168,VALID,0.0382401,
2001-08-21, 00:26:01,VALID,919.663,VALID,0,VALID,96.1511,VALID,-0.101885,VALID,20.0764,VALID,33,VALID,0.0759215,
2001-08-21, 00:27:00,VALID,919.641,VALID,0,VALID,96.1117,VALID,-0.101885,VALID,20.0496,VALID,21,VALID,0.0674342,
2001-08-21, 00:28:01,VALID,919.625,VALID,0,VALID,96.1079,VALID,-0.0849042,VALID,20.0461,VALID,38,VALID,0.228252,
2001-08-21, 00:29:00,VALID,919.609,VALID,0,VALID,96.1117,VALID,-0.0679233,VALID,20.0424,VALID,38,VALID,0.152755,
2001-08-21, 00:30:01,VALID,919.622,VALID,0,VALID,96.0926,VALID,-0.0339617,VALID,20.0543,VALID,35,VALID,0.115184,
2001-08-21, 00:31:00,VALID,919.645,VALID,0,VALID,96.1536,VALID,0.0169808,VALID,20.0677,VALID,35,VALID,0.0314556,
2001-08-21, 00:32:01,VALID,919.64,VALID,0,VALID,96.2567,VALID,0,VALID,20.0744,VALID,35,VALID,0.170072,
2001-08-21, 00:33:00,VALID,919.643,VALID,0,VALID,96.3266,VALID,-0.0169808,VALID,20.0906,VALID,33,VALID,0.366776,
2001-08-21, 00:34:01,VALID,919.651,VALID,0,VALID,96.3012,VALID,0,VALID,20.0806,VALID,33,VALID,0.309095,
2001-08-21, 00:35:00,VALID,919.635,VALID,0,VALID,96.2999,VALID,-0.0339617,VALID,20.0742,VALID,33,VALID,0.0929276,
2001-08-21, 00:36:00,VALID,919.603,VALID,0,VALID,96.1905,VALID,-0.0169808,VALID,20.0615,VALID,34,VALID,0.167668,
2001-08-21, 00:37:00,VALID,919.575,VALID,0,VALID,96.1562,VALID,-0.0509425,VALID,20.0478,VALID,41,VALID,0.302426,
2001-08-21, 00:38:01,VALID,919.564,VALID,0,VALID,96.2032,VALID,-0.0509425,VALID,20.0615,VALID,42,VALID,0.00420673,
2001-08-21, 00:39:00,VALID,919.554,VALID,0,VALID,96.2808,VALID,-0.0339617,VALID,20.0478,VALID,42,VALID,0.0283717,
2001-08-21, 00:40:01,VALID,919.544,VALID,0,VALID,96.2999,VALID,-0.0169808,VALID,20.0515,VALID,42,VALID,0.0765224,
2001-08-21, 00:41:00,VALID,919.534,VALID,0,VALID,96.3686,VALID,-0.0169808,VALID,20.0548,VALID,42,VALID,0,
2001-08-21, 00:42:01,VALID,919.51,VALID,0,VALID,96.4512,VALID,-0.0169808,VALID,20.0642,VALID,46,VALID,0,
2001-08-21, 00:43:00,VALID,919.49,VALID,0,VALID,96.3749,VALID,0,VALID,20.0709,VALID,125,VALID,0.22574,
2001-08-21, 00:44:01,VALID,919.477,VALID,0,VALID,96.4143,VALID,0,VALID,20.0742,VALID,176,VALID,0.010617,
2001-08-21, 00:45:00,VALID,919.446,VALID,0,VALID,96.4448,VALID,-0.0169808,VALID,20.0841,VALID,176,VALID,0.000822368,
2001-08-21, 00:46:01,VALID,919.429,VALID,0,VALID,96.4881,VALID,-0.0169808,VALID,20.0769,VALID,176,VALID,0,
2001-08-21, 00:47:00,VALID,919.426,VALID,0,VALID,96.4677,VALID,0,VALID,20.0806,VALID,176,VALID,0,
2001-08-21, 00:48:00,VALID,919.412,VALID,0,VALID,96.394,VALID,-0.0339617,VALID,20.0704,VALID,126,VALID,0.0492788,
2001-08-21, 00:49:00,VALID,919.371,VALID,0,VALID,96.3406,VALID,-0.0169808,VALID,20.0645,VALID,9,VALID,0.343133,
2001-08-21, 00:50:01,VALID,919.314,VALID,0,VALID,96.3368,VALID,-0.0339617,VALID,20.0615,VALID,9,VALID,0.475561,
2001-08-21, 00:51:00,VALID,919.276,VALID,0,VALID,96.3317,VALID,-0.0169808,VALID,20.0483,VALID,9,VALID,0.562294,
2001-08-21, 00:52:01,VALID,919.253,VALID,0,VALID,96.4372,VALID,0,VALID,20.058,VALID,8,VALID,0.475561,
2001-08-21, 00:53:00,VALID,919.233,VALID,0,VALID,96.4601,VALID,0,VALID,20.0712,VALID,8,VALID,0.201275,
2001-08-21, 00:54:01,VALID,919.235,VALID,0,VALID,96.5517,VALID,-0.0169808,VALID,20.0838,VALID,8,VALID,0,
2001-08-21, 00:55:01,VALID,919.234,VALID,0,VALID,96.5974,VALID,-0.0339617,VALID,20.1035,VALID,8,VALID,0.221423,
2001-08-21, 00:56:01,VALID,919.214,VALID,0,VALID,96.6089,VALID,-0.0339617,VALID,20.1132,VALID,8,VALID,0.156651,
2001-08-21, 00:57:01,VALID,919.194,VALID,0,VALID,96.6038,VALID,0,VALID,20.1224,VALID,8,VALID,0.176604,
2001-08-21, 00:58:01,VALID,919.172,VALID,0,VALID,96.614,VALID,0,VALID,20.1288,VALID,269,VALID,0.223357,
2001-08-21, 00:59:00,VALID,919.159,VALID,0,VALID,96.5567,VALID,-0.0339617,VALID,20.1355,VALID,208,VALID,0.342516,
2001-08-21, 01:00:00,VALID,919.149,VALID,0,VALID,96.5084,VALID,-0.0169808,VALID,20.1355,VALID,209,VALID,0.0953526,
2001-08-21, 01:01:00,VALID,919.159,VALID,0,VALID,96.5072,VALID,0,VALID,20.1457,VALID,209,VALID,0,
2001-08-21, 01:02:01,VALID,919.156,VALID,0,VALID,96.4906,VALID,-0.0169808,VALID,20.1457,VALID,208,VALID,0,
2001-08-21, 01:03:00,VALID,919.142,VALID,0,VALID,96.4207,VALID,-0.0339617,VALID,20.1226,VALID,208,VALID,0,
2001-08-21, 01:04:01,VALID,919.139,VALID,0,VALID,96.422,VALID,0,VALID,20.1226,VALID,208,VALID,0,
2001-08-21, 01:05:01,VALID,919.133,VALID,0,VALID,96.4042,VALID,-0.0169808,VALID,20.1258,VALID,208,VALID,0,
2001-08-21, 01:06:01,VALID,919.136,VALID,0,VALID,96.4296,VALID,0,VALID,20.1226,VALID,208,VALID,0,
2001-08-21, 01:07:01,VALID,919.138,VALID,0,VALID,96.4207,VALID,0,VALID,20.1127,VALID,208,VALID,0,
2001-08-21, 01:08:01,VALID,919.112,VALID,0,VALID,96.4232,VALID,-0.0169808,VALID,20.1097,VALID,208,VALID,0,
2001-08-21, 01:09:00,VALID,919.075,VALID,0,VALID,96.3609,VALID,0,VALID,20.1132,VALID,208,VALID,0,
2001-08-21, 01:10:01,VALID,919.041,VALID,0,VALID,96.3546,VALID,0,VALID,20.0968,VALID,208,VALID,0.0478766,
2001-08-21, 01:11:01,VALID,919.006,VALID,0,VALID,96.3406,VALID,0,VALID,20.0995,VALID,208,VALID,0,
2001-08-21, 01:12:01,VALID,918.989,VALID,0,VALID,96.3546,VALID,-0.0339617,VALID,20.1194,VALID,208,VALID,0.0174279,
2001-08-21, 01:13:01,VALID,918.98,VALID,0,VALID,96.2859,VALID,-0.0339617,VALID,20.1191,VALID,207,VALID,0.156044,
2001-08-21, 01:14:01,VALID,918.955,VALID,0,VALID,96.3012,VALID,-0.0339617,VALID,20.1296,VALID,205,VALID,0.397236,
2001-08-21, 01:15:01,VALID,918.941,VALID,0,VALID,96.3558,VALID,-0.0169808,VALID,20.1355,VALID,234,VALID,0.213199,
2001-08-21, 01:16:01,VALID,918.914,VALID,0,VALID,96.4042,VALID,-0.0169808,VALID,20.1422,VALID,234,VALID,0.187901,
2001-08-21, 01:17:01,VALID,918.905,VALID,0,VALID,96.5466,VALID,-0.0339617,VALID,20.1286,VALID,232,VALID,0.0923109,
2001-08-21, 01:18:01,VALID,918.882,VALID,0,VALID,96.6508,VALID,0,VALID,20.1484,VALID,222,VALID,0,
2001-08-21, 01:19:01,VALID,918.864,VALID,0,VALID,96.7119,VALID,0,VALID,20.1708,VALID,243,VALID,0.0168586,
2001-08-21, 01:20:01,VALID,918.855,VALID,0,VALID,96.7081,VALID,-0.0169808,VALID,20.1939,VALID,244,VALID,0.00200321,
2001-08-21, 01:21:01,VALID,918.83,VALID,0,VALID,96.6776,VALID,-0.0169808,VALID,20.2001,VALID,281,VALID,0.0968339,
2001-08-21, 01:22:01,VALID,918.802,VALID,0,VALID,96.614,VALID,-0.0339617,VALID,20.2036,VALID,321,VALID,0.124399,
2001-08-21, 01:23:01,VALID,918.791,VALID,0,VALID,96.4054,VALID,-0.0169808,VALID,20.1904,VALID,359,VALID,0.619038,
2001-08-21, 01:24:01,VALID,918.774,VALID,0,VALID,96.249,VALID,-0.0169808,VALID,20.1678,VALID,2,VALID,0.721154,
2001-08-21, 01:25:01,VALID,918.757,VALID,0,VALID,96.1702,VALID,0,VALID,20.1315,VALID,7,VALID,0.892681,
2001-08-21, 01:26:01,VALID,918.76,VALID,0,VALID,96.2274,VALID,-0.0169808,VALID,20.1059,VALID,11,VALID,0.928285,
2001-08-21, 01:27:01,VALID,918.753,VALID,0,VALID,96.2567,VALID,-0.0169808,VALID,20.093,VALID,15,VALID,0.735609,
2001-08-21, 01:28:01,VALID,918.757,VALID,0,VALID,96.3431,VALID,0,VALID,20.0742,VALID,19,VALID,0.71234,
2001-08-21, 01:29:01,VALID,918.733,VALID,0,VALID,96.4919,VALID,-0.0169808,VALID,20.058,VALID,13,VALID,0.577303,
2001-08-21, 01:30:00,VALID,918.702,VALID,0,VALID,96.6305,VALID,0.0169808,VALID,20.0518,VALID,13,VALID,0.315705,
2001-08-21, 01:31:00,VALID,918.679,VALID,0,VALID,96.7538,VALID,0,VALID,20.051,VALID,13,VALID,0.117804,
2001-08-21, 01:32:00,VALID,918.661,VALID,0,VALID,96.8162,VALID,0.0169808,VALID,20.0677,VALID,13,VALID,0.351763,
2001-08-21, 01:33:00,VALID,918.642,VALID,0,VALID,96.7373,VALID,0,VALID,20.0478,VALID,13,VALID,0.21361,
2001-08-21, 01:34:00,VALID,918.624,VALID,0,VALID,96.7564,VALID,0,VALID,20.058,VALID,14,VALID,0.328926,
2001-08-21, 01:35:00,VALID,918.602,VALID,0,VALID,96.7475,VALID,0,VALID,20.0354,VALID,16,VALID,0.0896382,
2001-08-21, 01:36:00,VALID,918.582,VALID,0,VALID,96.8568,VALID,0.0169808,VALID,20.0351,VALID,16,VALID,0,
2001-08-21, 01:37:00,VALID,918.547,VALID,0,VALID,96.9382,VALID,0,VALID,20.0448,VALID,16,VALID,0,
2001-08-21, 01:38:00,VALID,918.539,VALID,0,VALID,96.9815,VALID,0,VALID,20.061,VALID,347,VALID,0.0635016,
2001-08-21, 01:39:00,VALID,918.519,VALID,0,VALID,97.0094,VALID,0,VALID,20.0739,VALID,220,VALID,0.420641,
2001-08-21, 01:40:00,VALID,918.502,VALID,0,VALID,96.9522,VALID,0.0339617,VALID,20.0836,VALID,237,VALID,0.701522,
2001-08-21, 01:41:00,VALID,918.481,VALID,0,VALID,96.9713,VALID,0,VALID,20.0997,VALID,243,VALID,0.519531,
2001-08-21, 01:42:00,VALID,918.461,VALID,0,VALID,97.0005,VALID,0,VALID,20.0997,VALID,241,VALID,0.321114,
2001-08-21, 01:43:00,VALID,918.43,VALID,0,VALID,97.0018,VALID,0,VALID,20.1027,VALID,243,VALID,0.116776,
2001-08-21, 01:44:00,VALID,918.424,VALID,0,VALID,97.0183,VALID,0.0169808,VALID,20.1161,VALID,276,VALID,0.115986,
2001-08-21, 01:45:00,VALID,918.411,VALID,0,VALID,96.998,VALID,0,VALID,20.1258,VALID,342,VALID,0.0865543,
2001-08-21, 01:46:00,VALID,918.416,VALID,0,VALID,96.9649,VALID,0,VALID,20.1186,VALID,342,VALID,0,
2001-08-21, 01:47:00,VALID,918.425,VALID,0,VALID,96.9509,VALID,0,VALID,20.1388,VALID,342,VALID,0,
2001-08-21, 01:48:00,VALID,918.444,VALID,0,VALID,96.9115,VALID,0,VALID,20.1519,VALID,342,VALID,0.0136218,
2001-08-21, 01:49:00,VALID,918.44,VALID,0,VALID,96.8772,VALID,0.0169808,VALID,20.1544,VALID,342,VALID,0,
2001-08-21, 01:50:00,VALID,918.446,VALID,0,VALID,96.8174,VALID,0,VALID,20.1646,VALID,342,VALID,0,
2001-08-21, 01:51:00,VALID,918.438,VALID,0,VALID,96.8263,VALID,0,VALID,20.1643,VALID,17,VALID,0.266653,
2001-08-21, 01:52:00,VALID,918.425,VALID,0,VALID,96.8085,VALID,-0.0169808,VALID,20.1877,VALID,17,VALID,0.553686,
2001-08-21, 01:53:00,VALID,918.404,VALID,0,VALID,96.6966,VALID,0,VALID,20.1671,VALID,17,VALID,0.584293,
2001-08-21, 01:54:00,VALID,918.395,VALID,0,VALID,96.6394,VALID,0.0169808,VALID,20.1574,VALID,20,VALID,0.491787,
2001-08-21, 01:55:00,VALID,918.371,VALID,0,VALID,96.647,VALID,0,VALID,20.1676,VALID,21,VALID,0.555921,
2001-08-21, 01:56:00,VALID,918.36,VALID,0,VALID,96.6152,VALID,0.0169808,VALID,20.1673,VALID,20,VALID,0.866987,
2001-08-21, 01:57:00,VALID,918.35,VALID,0,VALID,96.5784,VALID,0.0169808,VALID,20.174,VALID,19,VALID,0.884252,
2001-08-21, 01:58:00,VALID,918.359,VALID,0,VALID,96.5949,VALID,0,VALID,20.1544,VALID,21,VALID,0.712941,
2001-08-21, 01:59:00,VALID,918.372,VALID,0,VALID,96.5962,VALID,0,VALID,20.1415,VALID,25,VALID,0.416118,
2001-08-21, 02:00:00,VALID,918.378,VALID,0,VALID,96.586,VALID,0.0169808,VALID,20.1482,VALID,17,VALID,0.634816,
2001-08-21, 02:01:00,VALID,918.385,VALID,0,VALID,96.5924,VALID,-0.0169808,VALID,20.1452,VALID,28,VALID,0.870271,
2001-08-21, 02:02:00,VALID,918.372,VALID,0,VALID,96.5898,VALID,0,VALID,20.1417,VALID,23,VALID,0.747196,
2001-08-21, 02:03:00,VALID,918.349,VALID,0,VALID,96.5695,VALID,-0.0339617,VALID,20.1549,VALID,23,VALID,0.916735,
2001-08-21, 02:04:00,VALID,918.329,VALID,0,VALID,96.6102,VALID,0,VALID,20.1415,VALID,26,VALID,1.11939,
2001-08-21, 02:05:00,VALID,918.298,VALID,0,VALID,96.6114,VALID,-0.0169808,VALID,20.1514,VALID,25,VALID,0.735197,
2001-08-21, 02:06:00,VALID,918.282,VALID,0,VALID,96.6025,VALID,0,VALID,20.1514,VALID,20,VALID,0.808494,
2001-08-21, 02:07:00,VALID,918.276,VALID,0,VALID,96.6241,VALID,0,VALID,20.1611,VALID,27,VALID,0.553865,
2001-08-21, 02:08:00,VALID,918.28,VALID,0,VALID,96.647,VALID,0,VALID,20.1837,VALID,28,VALID,0.056891,
2001-08-21, 02:09:00,VALID,918.293,VALID,0,VALID,96.5911,VALID,0,VALID,20.1902,VALID,29,VALID,0,
2001-08-21, 02:10:00,VALID,918.28,VALID,0,VALID,96.5466,VALID,0,VALID,20.1867,VALID,25,VALID,0.124399,
2001-08-21, 02:11:00,VALID,918.258,VALID,0,VALID,96.5033,VALID,0.0339617,VALID,20.187,VALID,6,VALID,0.144326,
2001-08-21, 02:12:00,VALID,918.27,VALID,0,VALID,96.5237,VALID,0.0169808,VALID,20.2066,VALID,6,VALID,0.0304487,
2001-08-21, 02:13:00,VALID,918.276,VALID,0,VALID,96.5402,VALID,0,VALID,20.2257,VALID,6,VALID,0,
2001-08-21, 02:14:00,VALID,918.265,VALID,0,VALID,96.53,VALID,0,VALID,20.2421,VALID,6,VALID,0.00741186,
2001-08-21, 02:15:00,VALID,918.256,VALID,0,VALID,96.5008,VALID,0,VALID,20.2545,VALID,6,VALID,0.0185033,
2001-08-21, 02:16:00,VALID,918.25,VALID,0,VALID,96.4741,VALID,0,VALID,20.2675,VALID,6,VALID,0.270433,
2001-08-21, 02:17:00,VALID,918.242,VALID,0,VALID,96.3673,VALID,0,VALID,20.2704,VALID,9,VALID,0.604646,
2001-08-21, 02:18:00,VALID,918.24,VALID,0,VALID,96.2681,VALID,0.0169808,VALID,20.2675,VALID,14,VALID,0.340745,
2001-08-21, 02:19:00,VALID,918.233,VALID,0,VALID,96.2706,VALID,0.0169808,VALID,20.2513,VALID,5,VALID,0.398438,
2001-08-21, 02:20:00,VALID,918.215,VALID,0,VALID,96.3457,VALID,0.0169808,VALID,20.2384,VALID,18,VALID,0.444311,
2001-08-21, 02:21:00,VALID,918.211,VALID,0,VALID,96.483,VALID,0.0169808,VALID,20.2319,VALID,22,VALID,0.266016,
2001-08-21, 02:22:00,VALID,918.21,VALID,0,VALID,96.5313,VALID,0,VALID,20.2352,VALID,32,VALID,0.232973,
2001-08-21, 02:23:00,VALID,918.195,VALID,0,VALID,96.4843,VALID,0.0169808,VALID,20.2416,VALID,34,VALID,0,
2001-08-21, 02:24:00,VALID,918.177,VALID,0,VALID,96.4359,VALID,0.0169808,VALID,20.2421,VALID,34,VALID,0.0010016,
2001-08-21, 02:25:00,VALID,918.18,VALID,0,VALID,96.4563,VALID,0,VALID,20.2193,VALID,34,VALID,0,
2001-08-21, 02:26:00,VALID,918.172,VALID,0,VALID,96.5046,VALID,0,VALID,20.2322,VALID,34,VALID,0,
2001-08-21, 02:27:00,VALID,918.181,VALID,0,VALID,96.5402,VALID,-0.0169808,VALID,20.2252,VALID,34,VALID,0,
2001-08-21, 02:28:00,VALID,918.169,VALID,0,VALID,96.5746,VALID,0.0169808,VALID,20.2416,VALID,34,VALID,0.179888,
2001-08-21, 02:29:00,VALID,918.167,VALID,0,VALID,96.5657,VALID,0,VALID,20.2416,VALID,34,VALID,0.14412,
2001-08-21, 02:30:00,VALID,918.178,VALID,0,VALID,96.6407,VALID,0,VALID,20.2416,VALID,34,VALID,0.0146234,
2001-08-21, 02:31:00,VALID,918.179,VALID,0,VALID,96.6776,VALID,-0.0169808,VALID,20.2677,VALID,34,VALID,0,
2001-08-21, 02:32:00,VALID,918.183,VALID,0,VALID,96.6178,VALID,-0.0509425,VALID,20.2712,VALID,19,VALID,0.0176282,
2001-08-21, 02:33:00,VALID,918.179,VALID,0,VALID,96.4741,VALID,-0.0169808,VALID,20.262,VALID,348,VALID,0.00616776,
2001-08-21, 02:34:00,VALID,918.19,VALID,0,VALID,96.4385,VALID,-0.0169808,VALID,20.2419,VALID,348,VALID,0.0228365,
2001-08-21, 02:35:00,VALID,918.17,VALID,0,VALID,96.4741,VALID,-0.0339617,VALID,20.2384,VALID,354,VALID,0.278783,
2001-08-21, 02:36:00,VALID,918.157,VALID,0,VALID,96.5237,VALID,-0.0169808,VALID,20.2518,VALID,12,VALID,0.467348,
2001-08-21, 02:37:00,VALID,918.153,VALID,0,VALID,96.5695,VALID,-0.0509425,VALID,20.2516,VALID,25,VALID,0.431949,
2001-08-21, 02:38:00,VALID,918.145,VALID,0,VALID,96.5466,VALID,-0.0339617,VALID,20.2481,VALID,13,VALID,0.362179,
2001-08-21, 02:39:00,VALID,918.127,VALID,0,VALID,96.4525,VALID,-0.0509425,VALID,20.2386,VALID,23,VALID,0.392681,
2001-08-21, 02:40:00,VALID,918.125,VALID,0,VALID,96.4919,VALID,-0.0339617,VALID,20.2225,VALID,19,VALID,1.04828,
2001-08-21, 02:41:00,VALID,918.133,VALID,0,VALID,96.4906,VALID,-0.0169808,VALID,20.2128,VALID,34,VALID,0.98787,
2001-08-21, 02:42:00,VALID,918.125,VALID,0,VALID,96.4092,VALID,-0.0339617,VALID,20.1929,VALID,14,VALID,0.511619,
2001-08-21, 02:43:00,VALID,918.133,VALID,0,VALID,96.4309,VALID,0,VALID,20.2001,VALID,20,VALID,0.36616,
2001-08-21, 02:44:00,VALID,918.147,VALID,0,VALID,96.427,VALID,-0.0169808,VALID,20.1969,VALID,14,VALID,0.232772,
2001-08-21, 02:45:00,VALID,918.15,VALID,0,VALID,96.3686,VALID,0,VALID,20.1835,VALID,10,VALID,0.0222039,
2001-08-21, 02:46:00,VALID,918.151,VALID,0,VALID,96.2859,VALID,0,VALID,20.1837,VALID,2,VALID,0.240986,
2001-08-21, 02:47:00,VALID,918.158,VALID,0,VALID,96.2071,VALID,0,VALID,20.1636,VALID,12,VALID,0.305099,
2001-08-21, 02:48:00,VALID,918.175,VALID,0,VALID,96.2083,VALID,-0.0339617,VALID,20.1611,VALID,18,VALID,0.11238,
2001-08-21, 02:49:00,VALID,918.176,VALID,0,VALID,96.3571,VALID,-0.0339617,VALID,20.1706,VALID,17,VALID,0.435238,
2001-08-21, 02:50:00,VALID,918.19,VALID,0,VALID,96.3062,VALID,-0.0169808,VALID,20.1735,VALID,13,VALID,0.564503,
2001-08-21, 02:51:00,VALID,918.2,VALID,0,VALID,96.2427,VALID,0,VALID,20.1514,VALID,11,VALID,0.714433,
2001-08-21, 02:52:00,VALID,918.207,VALID,0,VALID,96.2999,VALID,-0.0169808,VALID,20.1388,VALID,22,VALID,0.80028,
2001-08-21, 02:53:00,VALID,918.2,VALID,0,VALID,96.4385,VALID,-0.0339617,VALID,20.1323,VALID,25,VALID,0.780222,
2001-08-21, 02:54:00,VALID,918.201,VALID,0,VALID,96.5529,VALID,-0.0169808,VALID,20.1288,VALID,22,VALID,0.473958,
2001-08-21, 02:55:00,VALID,918.199,VALID,0,VALID,96.5072,VALID,-0.0169808,VALID,20.1253,VALID,27,VALID,0.654605,
2001-08-21, 02:56:00,VALID,918.204,VALID,0,VALID,96.4538,VALID,0,VALID,20.1156,VALID,24,VALID,0.404647,
2001-08-21, 02:57:00,VALID,918.207,VALID,0,VALID,96.4321,VALID,0,VALID,20.1027,VALID,14,VALID,0.273849,
2001-08-21, 02:58:00,VALID,918.23,VALID,0,VALID,96.4448,VALID,-0.0509425,VALID,20.103,VALID,281,VALID,0.057492,
2001-08-21, 02:59:00,VALID,918.237,VALID,0,VALID,96.4499,VALID,-0.0339617,VALID,20.0866,VALID,329,VALID,0.186883,
2001-08-21, 03:00:00,VALID,918.229,VALID,0,VALID,96.3622,VALID,0,VALID,20.0866,VALID,18,VALID,0.579728,
2001-08-21, 03:01:00,VALID,918.24,VALID,0,VALID,96.2757,VALID,-0.0169808,VALID,20.0801,VALID,16,VALID,0.329359,
2001-08-21, 03:02:00,VALID,918.266,VALID,0,VALID,96.2427,VALID,-0.0339617,VALID,20.0709,VALID,11,VALID,0.626603,
2001-08-21, 03:03:00,VALID,918.269,VALID,0,VALID,96.1753,VALID,0,VALID,20.0578,VALID,11,VALID,0.586554,
2001-08-21, 03:04:00,VALID,918.276,VALID,0,VALID,96.2541,VALID,0,VALID,20.061,VALID,14,VALID,0.363582,
2001-08-21, 03:05:00,VALID,918.278,VALID,0,VALID,96.2846,VALID,0,VALID,20.0481,VALID,26,VALID,0.622327,
2001-08-21, 03:06:00,VALID,918.294,VALID,0,VALID,96.3126,VALID,-0.0169808,VALID,20.0545,VALID,27,VALID,0.669071,
2001-08-21, 03:07:00,VALID,918.301,VALID,0,VALID,96.2681,VALID,0.0169808,VALID,20.0545,VALID,22,VALID,0.60403,
2001-08-21, 03:08:00,VALID,918.302,VALID,0,VALID,96.2274,VALID,0,VALID,20.0314,VALID,18,VALID,0.522837,
2001-08-21, 03:09:00,VALID,918.289,VALID,0,VALID,96.2821,VALID,0,VALID,20.0319,VALID,30,VALID,0.423109,
2001-08-21, 03:10:00,VALID,918.275,VALID,0,VALID,96.3546,VALID,0,VALID,20.0252,VALID,25,VALID,0.586939,
2001-08-21, 03:11:00,VALID,918.257,VALID,0,VALID,96.3342,VALID,0,VALID,20.009,VALID,24,VALID,0.462993,
2001-08-21, 03:12:00,VALID,918.248,VALID,0,VALID,96.3825,VALID,0,VALID,20.0026,VALID,3,VALID,0.463742,
2001-08-21, 03:13:00,VALID,918.237,VALID,0,VALID,96.4995,VALID,-0.0169808,VALID,19.9961,VALID,23,VALID,0.450452,
2001-08-21, 03:14:00,VALID,918.237,VALID,0,VALID,96.4309,VALID,0,VALID,19.9956,VALID,26,VALID,0.614183,
2001-08-21, 03:15:00,VALID,918.222,VALID,0,VALID,96.4321,VALID,0,VALID,19.9862,VALID,25,VALID,0.606702,
2001-08-21, 03:16:00,VALID,918.222,VALID,0,VALID,96.497,VALID,-0.0339617,VALID,19.9767,VALID,25,VALID,0.564503,
2001-08-21, 03:17:00,VALID,918.202,VALID,0,VALID,96.5809,VALID,-0.0169808,VALID,19.9937,VALID,14,VALID,0.340049,
2001-08-21, 03:18:00,VALID,918.188,VALID,0,VALID,96.5809,VALID,0,VALID,19.9703,VALID,12,VALID,0.316306,
2001-08-21, 03:19:00,VALID,918.18,VALID,0,VALID,96.5593,VALID,-0.0169808,VALID,19.9509,VALID,351,VALID,0.287007,
2001-08-21, 03:20:00,VALID,918.161,VALID,0,VALID,96.6191,VALID,-0.0339617,VALID,19.935,VALID,354,VALID,0.185296,
2001-08-21, 03:21:00,VALID,918.161,VALID,0,VALID,96.7246,VALID,-0.0509425,VALID,19.9517,VALID,6,VALID,0.272615,
2001-08-21, 03:22:00,VALID,918.139,VALID,0,VALID,96.7653,VALID,0.0169808,VALID,19.935,VALID,354,VALID,0.340144,
2001-08-21, 03:23:00,VALID,918.118,VALID,0,VALID,96.7767,VALID,0.0169808,VALID,19.9253,VALID,356,VALID,0.586554,
2001-08-21, 03:24:00,VALID,918.104,VALID,0,VALID,96.7627,VALID,-0.0169808,VALID,19.9156,VALID,12,VALID,0.935296,
2001-08-21, 03:25:00,VALID,918.091,VALID,0,VALID,96.8365,VALID,-0.0169808,VALID,19.9059,VALID,17,VALID,0.934211,
2001-08-21, 03:26:00,VALID,918.064,VALID,0,VALID,96.8823,VALID,0,VALID,19.8995,VALID,6,VALID,0.834135,
2001-08-21, 03:27:00,VALID,918.041,VALID,0,VALID,96.8479,VALID,-0.0169808,VALID,19.8866,VALID,10,VALID,0.783306,
2001-08-21, 03:28:00,VALID,918.022,VALID,0,VALID,96.7856,VALID,-0.0169808,VALID,19.8669,VALID,8,VALID,0.964944,
2001-08-21, 03:29:00,VALID,918.013,VALID,0,VALID,96.7907,VALID,0,VALID,19.8411,VALID,6,VALID,0.746916,
2001-08-21, 03:30:00,VALID,918.02,VALID,0,VALID,96.8594,VALID,-0.0169808,VALID,19.8349,VALID,6,VALID,0.630809,
2001-08-21, 03:31:00,VALID,918.024,VALID,0,VALID,96.8785,VALID,0,VALID,19.8088,VALID,19,VALID,0.694285,
2001-08-21, 03:32:00,VALID,918.029,VALID,0,VALID,96.9459,VALID,0,VALID,19.7926,VALID,21,VALID,0.921274,
2001-08-21, 03:33:00,VALID,918.038,VALID,0,VALID,96.9942,VALID,-0.0169808,VALID,19.7897,VALID,358,VALID,0.581826,
2001-08-21, 03:34:00,VALID,918.022,VALID,0,VALID,97.0654,VALID,-0.0169808,VALID,19.7832,VALID,9,VALID,0.509615,
2001-08-21, 03:35:00,VALID,918.016,VALID,0,VALID,97.1302,VALID,0,VALID,19.7733,VALID,9,VALID,0.424753,
2001-08-21, 03:36:00,VALID,918.026,VALID,0,VALID,97.176,VALID,0,VALID,19.7668,VALID,9,VALID,0.346554,